| time (UTC) | temp F | wind direction | speed MPH | gust MPH | rain 1hr in | rain 24hr in | rain mn in | humidity % | barometer mb |
| 20260503020029 | 44 | 263 | 0.0 | 0.0 | 0.00 | 0.00 | 0.00 | 59 | 1008.2 |
| 20260503014538 | 44 | 263 | 0.0 | 0.0 | 0.00 | 0.00 | 0.00 | 58 | 1008.1 |
| 20260503013028 | 45 | 263 | 0.0 | 0.0 | 0.00 | 0.00 | 0.00 | 55 | 1008.1 |
| 20260503011526 | 47 | 263 | 0.0 | 0.0 | 0.00 | 0.00 | 0.00 | 56 | 1008.3 |
| 20260503010026 | 48 | 263 | 0.0 | 0.0 | 0.00 | 0.00 | 0.00 | 45 | 1008.4 |
| 20260503004525 | 49 | 263 | 0.0 | 0.0 | 0.00 | 0.00 | 0.00 | 45 | 1008.5 |
| 20260503003023 | 50 | 263 | 0.0 | 1.0 | 0.00 | 0.00 | 0.00 | 44 | 1008.7 |
| 20260503001522 | 51 | 263 | 0.0 | 2.0 | 0.00 | 0.00 | 0.00 | 41 | 1008.8 |
| 20260503000020 | 51 | 261 | 0.0 | 3.0 | 0.00 | 0.00 | 0.00 | 41 | 1009.0 |
| 20260502234519 | 53 | 284 | 0.0 | 4.0 | 0.00 | 0.00 | 0.00 | 38 | 1009.1 |
| 20260502233018 | 51 | 285 | 0.0 | 2.0 | 0.00 | 0.00 | 0.00 | 42 | 1009.2 |
| 20260502231516 | 53 | 285 | 0.0 | 3.0 | 0.00 | 0.00 | 0.00 | 42 | 1009.3 |
| 20260502230017 | 53 | 281 | 0.0 | 5.0 | 0.00 | 0.00 | 0.00 | 38 | 1009.3 |
| 20260502224515 | 52 | 288 | 1.0 | 9.0 | 0.00 | 0.00 | 0.00 | 39 | 1009.3 |
| 20260502223017 | 52 | 288 | 2.0 | 5.0 | 0.00 | 0.00 | 0.00 | 42 | 1009.4 |
| 20260502221511 | 54 | 285 | 1.0 | 8.0 | 0.00 | 0.00 | 0.00 | 36 | 1009.7 |
| 20260502220010 | 54 | 289 | 2.0 | 5.0 | 0.00 | 0.00 | 0.00 | 38 | 1009.9 |
| 20260502214508 | 54 | 293 | 1.0 | 5.0 | 0.00 | 0.00 | 0.00 | 37 | 1010.0 |
| 20260502213006 | 55 | 278 | 2.0 | 6.0 | 0.00 | 0.00 | 0.00 | 35 | 1010.1 |
| 20260502211510 | 54 | 296 | 2.0 | 9.0 | 0.00 | 0.00 | 0.00 | 33 | 1010.3 |
| 20260502210006 | 55 | 259 | 2.0 | 5.0 | 0.00 | 0.00 | 0.00 | 33 | 1010.5 |
| 20260502204558 | 54 | 299 | 2.0 | 6.0 | 0.00 | 0.00 | 0.00 | 36 | 1010.7 |
| 20260502203101 | 52 | 276 | 3.0 | 7.0 | 0.00 | 0.00 | 0.00 | 40 | 1011.0 |
| 20260502201553 | 52 | 301 | 1.0 | 9.0 | 0.00 | 0.00 | 0.00 | 39 | 1011.2 |
| 20260502200050 | 54 | 273 | 2.0 | 6.0 | 0.00 | 0.00 | 0.00 | 38 | 1011.4 |
| 20260502194548 | 52 | 263 | 2.0 | 7.0 | 0.00 | 0.00 | 0.00 | 39 | 1011.6 |
| 20260502193045 | 52 | 259 | 1.0 | 7.0 | 0.00 | 0.00 | 0.00 | 41 | 1011.9 |
| 20260502191542 | 53 | 279 | 1.0 | 5.0 | 0.00 | 0.00 | 0.00 | 38 | 1012.2 |
| 20260502190039 | 53 | 302 | 1.0 | 5.0 | 0.00 | 0.00 | 0.00 | 38 | 1012.4 |
| 20260502184535 | 52 | 298 | 1.0 | 8.0 | 0.00 | 0.00 | 0.00 | 37 | 1012.6 |
| 20260502183033 | 52 | 273 | 2.0 | 3.0 | 0.00 | 0.00 | 0.00 | 36 | 1012.9 |
| 20260502181531 | 52 | 257 | 1.0 | 4.0 | 0.00 | 0.00 | 0.00 | 36 | 1013.1 |
| 20260502163010 | 47 | 226 | 0.0 | 4.0 | 0.00 | 0.00 | 0.00 | 42 | 1014.8 |
| 20260502161507 | 47 | 288 | 1.0 | 5.0 | 0.00 | 0.00 | 0.00 | 45 | 1015.1 |
| 20260502151606 | 44 | 277 | 0.0 | 6.0 | 0.00 | 0.00 | 0.00 | 49 | 1015.9 |
| 20260502123021 | 24 | 53 | 0.0 | 0.0 | 0.00 | 0.00 | 0.00 | 95 | 1017.2 |
| 20260502121517 | 23 | 53 | 0.0 | 0.0 | 0.00 | 0.00 | 0.00 | 95 | 1017.4 |
| 20260502114515 | 20 | 53 | 0.0 | 0.0 | 0.00 | 0.00 | 0.00 | 94 | 1017.4 |
| 20260502113017 | 20 | 53 | 0.0 | 0.0 | 0.00 | 0.00 | 0.00 | 93 | 1017.4 |
| 20260502111513 | 20 | 53 | 0.0 | 0.0 | 0.00 | 0.00 | 0.00 | 93 | 1017.4 |
| 20260502110113 | 19 | 53 | 0.0 | 0.0 | 0.00 | 0.00 | 0.00 | 93 | 1017.4 |
| 20260502104534 | 19 | 53 | 0.0 | 0.0 | 0.00 | 0.00 | 0.00 | 92 | 1017.5 |
| 20260502103010 | 19 | 53 | 0.0 | 0.0 | 0.00 | 0.00 | 0.00 | 92 | 1017.5 |
| 20260502101508 | 20 | 53 | 0.0 | 0.0 | 0.00 | 0.00 | 0.00 | 92 | 1017.5 |
| 20260502091509 | 21 | 53 | 0.0 | 0.0 | 0.00 | 0.00 | 0.00 | 91 | 1017.8 |
| 20260502070048 | 23 | 53 | 0.0 | 0.0 | 0.00 | 0.00 | 0.00 | 88 | 1018.3 |
| 20260502064549 | 23 | 53 | 0.0 | 0.0 | 0.00 | 0.00 | 0.00 | 87 | 1018.2 |
| 20260502063044 | 24 | 53 | 0.0 | 0.0 | 0.00 | 0.00 | 0.00 | 87 | 1018.3 |
| 20260502061541 | 24 | 53 | 0.0 | 0.0 | 0.00 | 0.00 | 0.00 | 85 | 1018.4 |
| 20260502060040 | 24 | 53 | 0.0 | 0.0 | 0.00 | 0.00 | 0.00 | 85 | 1018.4 |
| 20260502054538 | 25 | 53 | 0.0 | 0.0 | 0.00 | 0.00 | 0.00 | 84 | 1018.5 |
| 20260502053035 | 25 | 53 | 0.0 | 0.0 | 0.00 | 0.00 | 0.00 | 84 | 1018.6 |
| 20260502051552 | 26 | 53 | 0.0 | 0.0 | 0.00 | 0.00 | 0.00 | 83 | 1018.6 |
| 20260502050033 | 26 | 53 | 0.0 | 0.0 | 0.00 | 0.00 | 0.00 | 80 | 1018.7 |
| 20260502044530 | 26 | 53 | 0.0 | 0.0 | 0.00 | 0.00 | 0.00 | 81 | 1018.7 |
| 20260502043028 | 27 | 53 | 0.0 | 0.0 | 0.00 | 0.00 | 0.00 | 79 | 1018.7 |
| 20260502041526 | 27 | 53 | 0.0 | 0.0 | 0.00 | 0.00 | 0.00 | 77 | 1018.7 |
| 20260502040024 | 28 | 53 | 0.0 | 0.0 | 0.00 | 0.00 | 0.00 | 77 | 1018.7 |
| 20260502034536 | 28 | 53 | 0.0 | 0.0 | 0.00 | 0.00 | 0.00 | 76 | 1018.7 |
| 20260502033029 | 28 | 53 | 0.0 | 0.0 | 0.00 | 0.00 | 0.00 | 74 | 1018.7 |
| 20260502031523 | 29 | 53 | 0.0 | 0.0 | 0.00 | 0.00 | 0.00 | 73 | 1018.8 |
| 20260502030022 | 29 | 53 | 0.0 | 0.0 | 0.00 | 0.00 | 0.00 | 71 | 1018.8 |
| 20260502024528 | 30 | 53 | 0.0 | 0.0 | 0.00 | 0.00 | 0.00 | 67 | 1018.7 |
| 20260502023025 | 31 | 53 | 0.0 | 0.0 | 0.00 | 0.00 | 0.00 | 65 | 1018.6 |
| 20260502021521 | 33 | 53 | 0.0 | 0.0 | 0.00 | 0.00 | 0.00 | 63 | 1018.6 |